DW9235 Weather Reports


time (UTC)temp
F
wind
direction
speed
knots
gust
knots
rain 1hr
in
rain 24hr
in
rain mn
in
humidity
%
barometer
mb
20260505083043 39 144 0.0 2.6 0.00 0.06 0.02 92 1006.7
20260505081534 39 144 0.9 1.7 0.00 0.06 0.02 92 1006.9
20260505080045 39 167 0.9 2.6 0.00 0.06 0.02 92 1006.8
20260505074532 39 168 1.7 3.5 0.01 0.06 0.02 92 1007.0
20260505073034 40 138 0.9 4.3 0.01 0.06 0.02 92 1007.1
20260505071537 40 92 0.9 4.3 0.01 0.06 0.02 92 1007.4
20260505070026 40 104 0.0 2.6 0.02 0.06 0.02 92 1007.6
20260505064528 40 101 0.9 2.6 0.02 0.05 0.01 92 1007.4
20260505063024 41 139 1.7 4.3 0.02 0.05 0.01 92 1007.3
20260505061519 41 76 0.0 6.1 0.02 0.05 0.01 91 1007.7
20260505060019 41 105 2.6 4.3 0.01 0.04 0.04 90 1007.8
20260505054517 41 33 0.0 3.5 0.00 0.03 0.03 89 1008.0
20260505053019 41 49 0.0 2.6 0.00 0.03 0.03 87 1007.8
20260505051515 41 77 0.0 1.7 0.00 0.03 0.03 86 1007.7
20260505041513 41 71 3.5 7.0 0.00 0.03 0.03 85 1006.8
20260505040012 41 67 2.6 8.7 0.00 0.03 0.03 87 1006.7
20260505034512 42 98 1.7 7.8 0.00 0.03 0.03 86 1006.9
20260505033011 42 90 5.2 9.6 0.00 0.03 0.03 85 1006.7
20260505031512 42 87 4.3 7.8 0.00 0.03 0.03 83 1006.9
20260505030009 42 57 1.7 6.1 0.00 0.03 0.03 84 1006.9
20260505024509 42 30 1.7 6.1 0.01 0.03 0.03 84 1006.5
20260505023008 42 59 0.9 5.2 0.03 0.03 0.03 83 1006.1
20260505021512 42 92 2.6 8.7 0.03 0.03 0.03 82 1006.3
20260505020014 43 102 2.6 8.7 0.03 0.03 0.03 79 1006.5
20260505014504 45 66 3.5 11.3 0.02 0.02 0.02 74 1006.1
20260505013003 48 95 12.2 20.0 0.00 0.00 0.00 62 1006.4
20260505011502 50 28 2.6 7.8 0.00 0.00 0.00 52 1005.7
20260505010001 51 77 4.3 9.6 0.00 0.00 0.00 49 1004.8
20260505004504 52 109 7.0 13.9 0.00 0.00 0.00 47 1004.4
20260505003000 52 128 6.1 9.6 0.00 0.00 0.00 46 1004.3
20260505001600 54 105 3.5 9.6 0.00 0.00 0.00 43 1004.2
20260505000059 54 106 7.8 13.9 0.00 0.00 0.00 41 1004.2
20260504234559 54 101 3.5 12.2 0.00 0.00 0.00 44 1004.2
20260504233059 55 94 8.7 16.5 0.00 0.00 0.00 41 1004.3
20260504231559 56 140 1.7 9.6 0.00 0.00 0.00 39 1004.1
20260504230058 57 61 1.7 10.4 0.00 0.00 0.00 36 1003.9
20260504224558 57 284 0.0 4.3 0.00 0.00 0.00 34 1003.8
20260504223057 57 257 2.6 6.1 0.00 0.00 0.00 36 1003.8
20260504221556 56 248 2.6 6.1 0.00 0.00 0.00 36 1003.7
20260504220056 56 234 7.8 23.5 0.00 0.00 0.00 40 1003.9
20260504214604 59 265 5.2 7.0 0.00 0.00 0.00 31 1003.8
20260504213056 60 101 5.2 9.6 0.00 0.00 0.00 29 1003.5
20260504211554 61 109 5.2 11.3 0.00 0.00 0.00 25 1003.5
20260504204608 64 236 5.2 10.4 0.00 0.00 0.00 23 1003.4
20260504203106 63 59 3.5 13.0 0.00 0.00 0.00 24 1003.6
20260504201546 61 150 1.7 6.1 0.00 0.00 0.00 25 1003.8
20260504200047 61 96 2.6 4.3 0.00 0.00 0.00 25 1003.8
20260504194544 60 184 4.3 7.8 0.00 0.00 0.00 28 1003.9
20260504193044 61 163 5.2 8.7 0.00 0.00 0.00 25 1003.8
20260504191541 62 135 2.6 6.1 0.00 0.00 0.00 26 1004.0
20260504190039 61 101 1.7 8.7 0.00 0.00 0.00 29 1004.2
20260504184537 59 114 4.3 12.2 0.00 0.00 0.00 26 1004.6
20260504183036 60 76 3.5 7.0 0.00 0.00 0.00 26 1005.1
20260504181534 61 298 0.0 5.2 0.00 0.00 0.00 25 1005.0
20260504180031 62 360 1.7 6.1 0.00 0.00 0.00 26 1005.2
20260504174528 62 70 2.6 7.8 0.00 0.00 0.00 27 1005.6
20260504173024 61 339 4.3 9.6 0.00 0.00 0.00 28 1006.0
20260504171521 60 24 6.1 10.4 0.00 0.00 0.00 32 1006.2